Voltar ao catálogo

STARLINK-11269

AtivoComunicaçõesVLEO
NORAD 60995·PAYLOAD·🇺🇸 United States

Lançado Sep 5, 2024 de Cape Canaveral Space Force Station

Loading…

Próximas Passagens (próximas 24 horas)

TLE

AtualizadoSource: CelesTrak SupGP

Época: Sep 14, 2026, 21:36 UTC

1 60995C 24158F   26257.90048611  .00065891  00000+0  54295-3 0  2573
2 60995  53.1573  68.7659 0001187  69.8339 125.5708 15.69668304    18

Acompanhe STARLINK-11269 em tempo real com AllMySat

Download on the App Store